LUCH 5V (SDCM/PRN 141)

Last updated on Sun Oct 19 2025 00:03:28 GMT+0000 (Coordinated Universal Time)

1 39727U 14023A 25291.28710939 -.00000272 00000+0 00000+0 0 9996 2 39727 4.5267 72.0168 0003523 173.1502 340.0219 1.00272116 41936
UTC large
Height (km)
Speed (km/s)
/
Latitude / Longitude
Inclination (degrees)
Orbital Period (minutes)
Azimuth
Elevation
Range (km)
Doppler Factor

Next 0 passes for location: London (51.5072 / 0.1276)

Sorry there are no passes over London.